Bangkok (Suvarnabhumi), Thailand

12:13 PM +07 on December 15, 2019 (GMT +0700)
Bangkok (Suvarnabhumi)

Weather History for VTBS - October, 2019

Change the Weather History Date:

Saturday, October 5, 2019

  Actual Average (WUND) Record (WUND)
Temperature  
Mean Temperature 83 °F -  
Max Temperature 91 °F 90 °F - (-1)
Min Temperature 75 °F 74 °F - (-1)
Cooling Degree Days 18    
Growing Degree Days 33 (Base 50)    
Moisture  
Dew Point 75 °F    
Average Humidity 84    
Maximum Humidity 96    
Minimum Humidity 55    
Precipitation  
Precipitation 0.39 in 0.25 in - ()
Sea Level Pressure  
Sea Level Pressure 29.82 in    
Wind  
Wind Speed 4 mph ()    
Max Wind Speed 17 mph    
Max Gust Speed 30 mph    
Visibility 4.9 miles    
Events Rain , Thunderstorm    
Averages and records for this station are not official NWS values.
T = Trace of Precipitation, MM = Missing Value Source: Averaged Metar Reports

Daily Weather History Graph

Daily Weather History Graph

Search for Another Location

Airport or City:

Astronomy

Oct. 05, 2019 Rise Set
Actual Time 6:05 AM +07 6:03 PM +07
Civil Twilight 5:44 AM +07 6:24 PM +07
Nautical Twilight 5:19 AM +07 6:49 PM +07
Astronomical Twilight 4:54 AM +07 7:14 PM +07
Moon 12:11 PM +07 (10/5) 11:49 PM +07 (10/5)
Length of Visible Light 12h 40m
Length of Day
11h 57m
Waxing Crescent, 45% of the Moon is Illuminated
Oct 5
Waxing Crescent
Oct 5
First Quarter
Oct 14
Full
Oct 21
Last Quarter
Oct 28
New

Hourly Weather History & Observations

Time (+07) Temp. Heat Index Dew Point Humidity Pressure Visibility Wind Dir Wind Speed Gust Speed Precip Events Conditions
12:00 AM 80.6 °F 86.2 °F 75.2 °F 84% 29.86 in 5.6 mi East 5.8 mph - N/A   Partly Cloudy
12:30 AM 80.6 °F 86.2 °F 75.2 °F 84% 29.83 in 5.6 mi ESE 5.8 mph - N/A   Partly Cloudy
1:00 AM 78 °F - 77 °F 94% 29.81 in 2 mi Calm Calm - -   Mist
1:00 AM 78.8 °F - 75.2 °F 89% 29.83 in 5.6 mi ESE 5.8 mph - N/A   Partly Cloudy
1:30 AM 78.8 °F - 75.2 °F 89% 29.83 in 5.6 mi SE 5.8 mph - N/A   Partly Cloudy
2:00 AM 78.8 °F - 75.2 °F 89% 29.80 in 5.6 mi Variable 2.3 mph - N/A   Partly Cloudy
2:30 AM 78.8 °F - 75.2 °F 89% 29.80 in 5.6 mi Variable 2.3 mph - N/A   Partly Cloudy
3:00 AM 78.8 °F - 75.2 °F 89% 29.80 in 5.6 mi NW 3.5 mph - N/A   Partly Cloudy
3:30 AM 78.8 °F - 75.2 °F 89% 29.80 in 5.6 mi NNW 3.5 mph - N/A   Partly Cloudy
4:00 AM 78 °F - 76 °F 93% 29.81 in 2 mi Calm Calm - -   Mist
4:00 AM 78.8 °F - 75.2 °F 89% 29.80 in 5.6 mi NNE 3.5 mph - N/A   Partly Cloudy
4:30 AM 78.8 °F - 75.2 °F 89% 29.80 in 5.6 mi NNE 3.5 mph - N/A   Partly Cloudy
5:00 AM 78.8 °F - 75.2 °F 89% 29.80 in 5.6 mi NE 4.6 mph - N/A   Partly Cloudy
5:30 AM 78.8 °F - 77.0 °F 94% 29.80 in 5.6 mi NE 5.8 mph - N/A   Partly Cloudy
6:00 AM 78.8 °F - 75.2 °F 89% 29.80 in 5.6 mi NE 4.6 mph - N/A   Partly Cloudy
6:30 AM 78.8 °F - 75.2 °F 89% 29.83 in 4.3 mi NNE 4.6 mph - N/A   Partly Cloudy
7:00 AM 78 °F - 77 °F 96% 29.84 in 1 mi Calm Calm - -   Mist
7:00 AM 78.8 °F - 77.0 °F 94% 29.83 in 4.3 mi NE 4.6 mph - N/A   Partly Cloudy
7:30 AM 80.6 °F 87.1 °F 77.0 °F 89% 29.86 in 5.0 mi East 5.8 mph - N/A   Partly Cloudy
8:00 AM 80.6 °F 87.1 °F 77.0 °F 89% 29.86 in 5.0 mi East 6.9 mph - N/A   Partly Cloudy
8:30 AM 82.4 °F 90.9 °F 77.0 °F 84% 29.86 in 5.0 mi East 5.8 mph - N/A   Partly Cloudy
9:00 AM 84.2 °F 94.1 °F 77.0 °F 79% 29.89 in 5.0 mi ENE 5.8 mph - N/A   Partly Cloudy
9:30 AM 86.0 °F 96.9 °F 77.0 °F 74% 29.89 in 5.0 mi Variable 4.6 mph - N/A   Partly Cloudy
10:00 AM 88 °F - 78 °F 66% 29.83 in 5 mi WNW 2.3 mph - -   Mist
10:00 AM 86.0 °F 96.9 °F 77.0 °F 74% 29.89 in 5.0 mi Variable 4.6 mph - N/A   Scattered Clouds
11:00 AM 87.8 °F 99.7 °F 77.0 °F 70% 29.86 in 5.0 mi NNE 5.8 mph - N/A   Scattered Clouds
11:30 AM 89.6 °F 99.8 °F 75.2 °F 62% 29.86 in 5.0 mi Variable 5.8 mph - N/A   Scattered Clouds
12:00 PM 89.6 °F 99.8 °F 75.2 °F 62% 29.83 in 5.0 mi Variable 3.5 mph - N/A   Scattered Clouds
12:30 PM 80.6 °F 85.4 °F 73.4 °F 79% 29.83 in 5.0 mi WSW 10.4 mph - N/A Rain , Thunderstorm Light Thunderstorms and Rain
1:00 PM 83 °F - 76 °F 73% 29.82 in 2 mi Calm Calm - - Rain , Thunderstorm Thunderstorms and Rain
1:00 PM 80.6 °F 86.2 °F 75.2 °F 84% 29.80 in 5.0 mi WSW 5.8 mph - N/A Rain Light Rain
1:30 PM 86.0 °F 95.1 °F 75.2 °F 70% 29.77 in 5.6 mi WSW 4.6 mph - N/A   Partly Cloudy
2:30 PM 87.8 °F 97.6 °F 75.2 °F 66% 29.74 in 5.6 mi WSW 5.8 mph - N/A   Partly Cloudy
3:00 PM 89.6 °F 99.8 °F 75.2 °F 62% 29.74 in 5.6 mi WSW 4.6 mph - N/A   Partly Cloudy
3:30 PM 91.4 °F 100.1 °F 73.4 °F 55% 29.74 in 5.6 mi NNE 5.8 mph 26.5 mph N/A Thunderstorm Thunderstorm
4:00 PM 86 °F - 76 °F 66% 29.75 in 2 mi Calm Calm - -   Mist
4:00 PM 78.8 °F - 73.4 °F 83% 29.77 in 1.9 mi ENE 17.3 mph 29.9 mph N/A Rain , Thunderstorm Thunderstorms and Rain
4:30 PM 77.0 °F - 73.4 °F 89% 29.77 in 5.0 mi NNE 15.0 mph - N/A Rain , Thunderstorm Light Thunderstorms and Rain
5:00 PM 77.0 °F - 73.4 °F 89% 29.77 in 5.6 mi East 3.5 mph - N/A Rain , Thunderstorm Light Thunderstorms and Rain
5:30 PM 77.0 °F - 73.4 °F 89% 29.77 in 5.6 mi SE 3.5 mph - N/A Rain Light Rain
6:00 PM 77.0 °F - 73.4 °F 89% 29.77 in 5.6 mi Variable 2.3 mph - N/A Rain Light Rain
6:30 PM 77.0 °F - 75.2 °F 94% 29.80 in 5.6 mi SSE 4.6 mph - N/A Rain Light Rain
7:00 PM 78 °F - 76 °F 93% 29.79 in 1 mi Calm Calm - - Rain , Thunderstorm Thunderstorms and Rain
7:00 PM 78.8 °F - 73.4 °F 83% 29.80 in 6.2 mi SE 4.6 mph - N/A   Mostly Cloudy
7:30 PM 77.0 °F - 75.2 °F 94% 29.83 in 6.2 mi Variable 2.3 mph - N/A   Mostly Cloudy
8:00 PM 77.0 °F - 75.2 °F 94% 29.83 in 5.6 mi Variable 2.3 mph - N/A   Mostly Cloudy
8:30 PM 78.8 °F - 73.4 °F 83% 29.86 in 5.6 mi ENE 3.5 mph - N/A   Mostly Cloudy
9:00 PM 77.0 °F - 75.2 °F 94% 29.86 in 5.6 mi North 3.5 mph - N/A   Mostly Cloudy
10:00 PM 78 °F - 77 °F 94% 29.88 in 2 mi Calm Calm - -   Mist
10:00 PM 78.8 °F - 73.4 °F 83% 29.89 in 5.6 mi NE 4.6 mph - N/A   Mostly Cloudy
11:00 PM 77.0 °F - 75.2 °F 94% 29.89 in 6.2 mi North 4.6 mph - N/A   Mostly Cloudy
11:30 PM 77.0 °F - 75.2 °F 94% 29.89 in 6.2 mi NNW 4.6 mph - N/A   Mostly Cloudy